Andrews, TX

9:43 PM CDT on August 16, 2017 (GMT -0500)
Andrews

Weather History for KE11 - March, 2013

Change the Weather History Date:

Tuesday, March 19, 2013

  Actual Average (KMAF) Record (KMAF)
Temperature  
Mean Temperature 57 °F -  
Max Temperature 73 °F 67 °F 90 °F (2017)
Min Temperature 41 °F 42 °F 21 °F (1965)
Degree Days  
Heating Degree Days 8    
Growing Degree Days 7 (Base 50)    
Moisture  
Dew Point 25 °F    
Average Humidity 30    
Maximum Humidity 61    
Minimum Humidity 12    
Precipitation  
Precipitation 0.00 in - - ()
Sea Level Pressure  
Sea Level Pressure 29.98 in    
Wind  
Wind Speed 8 mph (NE)    
Max Wind Speed 18 mph    
Max Gust Speed 25 mph    
Visibility 10 miles    
Events Rain    
Averages and records for this station are not official NWS values.
T = Trace of Precipitation, MM = Missing Value Source: NWS Daily Summary

Daily Weather History Graph

Daily Weather History Graph

Search for Another Location

Airport or City:

Trip Planner

Search our weather history database for the weather conditions in past years. The results will help you decide how hot, cold, wet, or windy it might be!

Date:

Astronomy

Mar. 19, 2013 Rise Set
Actual Time 7:54 AM CDT 8:01 PM CDT
Civil Twilight 7:30 AM CDT 8:25 PM CDT
Nautical Twilight 7:01 AM CDT 8:54 PM CDT
Astronomical Twilight 6:33 AM CDT 9:23 PM CDT
Moon 1:05 PM CDT (3/19) 2:31 AM CDT (3/19)
Length of Visible Light 12h 55m
Length of Day
12h 06m
Waxing Crescent, 50% of the Moon is Illuminated
Mar 19
Waxing Crescent
Mar 19
First Quarter
Mar 27
Full
Apr 2
Last Quarter
Apr 10
New

Hourly Weather History & Observations

Time (CDT) Temp. Windchill Dew Point Humidity Pressure Visibility Wind Dir Wind Speed Gust Speed Precip Events Conditions
12:15 AM 53.8 °F - 19.2 °F 26% 29.96 in 10.0 mi SSW 6.9 mph - N/A   Clear
12:35 AM 53.8 °F - 19.2 °F 26% 29.96 in 10.0 mi SSW 6.9 mph - N/A   Clear
12:55 AM 52.9 °F - 19.4 °F 27% 29.95 in 10.0 mi SSW 8.1 mph - N/A   Clear
1:15 AM 53.6 °F - 19.8 °F 27% 29.95 in 10.0 mi SSW 8.1 mph - N/A   Clear
1:35 AM 53.6 °F - 20.3 °F 27% 29.95 in 10.0 mi SSW 8.1 mph - N/A   Clear
1:55 AM 52.9 °F - 20.8 °F 29% 29.95 in 10.0 mi SSW 9.2 mph - N/A   Clear
2:15 AM 52.7 °F - 22.1 °F 30% 29.95 in 10.0 mi South 8.1 mph - N/A   Clear
2:35 AM 52.7 °F - 22.5 °F 31% 29.95 in 10.0 mi SSW 8.1 mph - N/A   Clear
2:55 AM 52.0 °F - 23.2 °F 33% 29.94 in 10.0 mi SSW 8.1 mph - N/A   Clear
3:15 AM 53.1 °F - 23.5 °F 32% 29.94 in 10.0 mi SSW 10.4 mph - N/A   Clear
3:35 AM 53.2 °F - 22.6 °F 30% 29.94 in 10.0 mi SSW 10.4 mph - N/A   Clear
3:55 AM 53.6 °F - 21.6 °F 29% 29.93 in 10.0 mi SSW 12.7 mph 17.3 mph N/A   Clear
4:15 AM 54.0 °F - 22.5 °F 29% 29.93 in 10.0 mi SSW 13.8 mph - N/A   Clear
4:35 AM 53.6 °F - 22.8 °F 30% 29.92 in 10.0 mi SSW 11.5 mph - N/A   Clear
4:55 AM 52.7 °F - 23.0 °F 31% 29.93 in 10.0 mi SSW 8.1 mph - N/A   Clear
5:15 AM 50.9 °F - 23.0 °F 34% 29.93 in 10.0 mi SW 6.9 mph - N/A   Clear
5:35 AM 50.7 °F - 22.5 °F 33% 29.94 in 10.0 mi SW 4.6 mph - N/A   Clear
5:55 AM 47.1 °F - 22.1 °F 37% 29.95 in 10.0 mi Calm Calm - N/A   Clear
6:15 AM 44.6 °F 43.1 °F 21.4 °F 40% 29.95 in 10.0 mi North 3.5 mph - N/A   Clear
6:35 AM 46.0 °F 44.8 °F 23.9 °F 42% 29.95 in 10.0 mi North 3.5 mph - N/A   Clear
7:15 AM 42.8 °F - 22.3 °F 44% 29.96 in 10.0 mi Calm Calm - N/A   Clear
7:35 AM 44.1 °F 42.5 °F 23.7 °F 45% 29.96 in 10.0 mi WSW 3.5 mph - N/A   Clear
7:55 AM 41.9 °F - 22.3 °F 46% 29.96 in 10.0 mi Calm Calm - N/A   Clear
8:15 AM 41.7 °F - 21.9 °F 45% 29.96 in 10.0 mi Calm Calm - N/A   Clear
8:35 AM 43.0 °F - 22.8 °F 45% 29.97 in 10.0 mi Calm Calm - N/A   Clear
8:55 AM 51.1 °F - 22.5 °F 33% 29.97 in 10.0 mi SW 8.1 mph - N/A   Clear
9:15 AM 54.3 °F - 23.5 °F 30% 29.97 in 10.0 mi SW 5.8 mph - N/A   Clear
9:35 AM 56.5 °F - 24.1 °F 29% 29.97 in 10.0 mi SW 3.5 mph - N/A   Clear
9:55 AM 59.0 °F - 23.2 °F 25% 29.98 in 10.0 mi SW 4.6 mph - N/A   Clear
10:15 AM 61.2 °F - 23.4 °F 24% 29.98 in 10.0 mi SW 4.6 mph - N/A   Clear
10:35 AM 62.8 °F - 21.9 °F 21% 29.97 in 10.0 mi West 3.5 mph - N/A   Clear
10:55 AM 63.9 °F - 19.9 °F 19% 29.97 in 10.0 mi Calm Calm - N/A   Clear
11:15 AM 64.4 °F - 19.9 °F 18% 29.98 in 10.0 mi Calm Calm - N/A   Clear
11:35 AM 65.3 °F - 20.8 °F 18% 29.97 in 10.0 mi Calm Calm - N/A   Clear
11:55 AM 66.2 °F - 20.3 °F 17% 29.97 in 10.0 mi Calm Calm - N/A   Clear
12:15 PM 67.6 °F - 20.5 °F 17% 29.97 in 10.0 mi Calm Calm - N/A   Clear
12:35 PM 68.9 °F - 21.0 °F 16% 29.96 in 10.0 mi Calm Calm - N/A   Clear
12:55 PM 69.8 °F - 20.8 °F 16% 29.96 in 10.0 mi North 3.5 mph - N/A   Clear
1:15 PM 70.7 °F - 19.6 °F 14% 29.96 in 10.0 mi Calm Calm - N/A   Clear
1:35 PM 71.6 °F - 19.0 °F 14% 29.96 in 10.0 mi NNW 4.6 mph - N/A   Clear
1:55 PM 72.1 °F - 19.9 °F 14% 29.95 in 10.0 mi North 3.5 mph - N/A   Clear
2:15 PM 71.8 °F - 19.4 °F 14% 29.95 in 10.0 mi NE 3.5 mph - N/A   Clear
2:35 PM 72.5 °F - 19.4 °F 13% 29.94 in 10.0 mi NNE 3.5 mph - N/A   Clear
2:55 PM 73.0 °F - 19.2 °F 13% 29.93 in 10.0 mi North 4.6 mph - N/A   Clear
3:15 PM 73.6 °F - 18.9 °F 13% 29.93 in 10.0 mi North 6.9 mph - N/A   Clear
3:35 PM 73.9 °F - 17.4 °F 12% 29.93 in 10.0 mi North 6.9 mph - N/A   Clear
3:55 PM 73.9 °F - 19.6 °F 13% 29.92 in 10.0 mi NNE 9.2 mph - N/A   Clear
4:15 PM 73.6 °F - 20.5 °F 14% 29.93 in 10.0 mi NE 11.5 mph 17.3 mph N/A   Clear
4:35 PM 73.0 °F - 17.1 °F 12% 29.93 in 10.0 mi NE 11.5 mph - N/A   Clear
4:55 PM 73.4 °F - 23.5 °F 16% 29.93 in 10.0 mi NE 15.0 mph 18.4 mph N/A   Clear
5:15 PM 73.0 °F - 24.3 °F 16% 29.93 in 10.0 mi NE 15.0 mph 18.4 mph N/A   Clear
5:35 PM 71.6 °F - 24.8 °F 17% 29.93 in 10.0 mi NE 16.1 mph - N/A   Clear
5:55 PM 71.6 °F - 26.4 °F 19% 29.94 in 10.0 mi North - - N/A   Clear
6:15 PM 68.9 °F - 33.4 °F 27% 29.95 in 10.0 mi NE 18.4 mph 25.3 mph N/A   Clear
6:35 PM 67.3 °F - 32.0 °F 27% 29.95 in 7.0 mi NE 16.1 mph 21.9 mph N/A   Scattered Clouds
7:15 PM 65.7 °F - 30.4 °F 27% 29.97 in 4.0 mi ENE 17.3 mph - N/A   Haze
7:35 PM 64.0 °F - 28.9 °F 27% 29.98 in 7.0 mi NE 16.1 mph 20.7 mph N/A   Clear
7:55 PM 62.2 °F - 32.0 °F 32% 30.00 in 7.0 mi NE 15.0 mph - N/A   Clear
8:35 PM 59.9 °F - 34.2 °F 38% 30.02 in 10.0 mi ENE 13.8 mph 21.9 mph N/A   Drizzle
8:55 PM 59.0 °F - 36.0 °F 42% 30.04 in 10.0 mi ENE 15.0 mph 20.7 mph N/A   Clear
9:15 PM 57.4 °F - 36.7 °F 46% 30.06 in 10.0 mi ENE 15.0 mph 23.0 mph N/A   Clear
9:35 PM 55.9 °F - 36.7 °F 48% 30.08 in 10.0 mi NE 17.3 mph 24.2 mph N/A   Clear
9:55 PM 54.9 °F - 36.5 °F 50% 30.10 in 10.0 mi ENE 16.1 mph 23.0 mph N/A   Clear
10:15 PM 53.6 °F - 36.0 °F 51% 30.12 in 10.0 mi ENE 16.1 mph 24.2 mph N/A   Drizzle
10:35 PM 52.7 °F - 36.0 °F 53% 30.14 in 10.0 mi ENE 18.4 mph 21.9 mph N/A   Drizzle
10:55 PM 51.8 °F - 36.3 °F 56% 30.15 in 10.0 mi ENE 15.0 mph 23.0 mph N/A   Drizzle
11:15 PM 50.9 °F - 36.5 °F 58% 30.16 in 10.0 mi NE 15.0 mph 23.0 mph N/A   Drizzle
11:35 PM 49.6 °F - 36.0 °F 59% 30.17 in 10.0 mi NE 13.8 mph 20.7 mph N/A Rain Rain
11:55 PM 49.1 °F - 36.0 °F 61% 30.18 in 10.0 mi ENE 13.8 mph - N/A   Drizzle